STARLINK-3159, 49415

Orbit data source: Space-Track

STARLINK-3159, 49415 is a payload satellite owned by SpaceX/Seattle (US) in LEO that was launched on Sat, 13 Nov 2021 UTC via an FALCON 9 launch vehicle from the Air Force Eastern Test Range (AFETR). Payload-class satellites include a variety of spacecraft equipped with specific instruments for various scientific and technological missions. These include communications satellites like Starlink; space stations such as the ISS; scientific satellites like the Hubble; Earth observation satellites from companies like Planet Labs, Umbra, and HawkEye 360; GPS; miniature CubeSats for education and research; and military/defense satellites.

Loading next visibility...
Identifier
49415, 2021-104H
Orbit
LEO
Country
Flag of USUS
Related business
Manufacturer
SpaceX/Seattle
Mission
Operational Commercial Communications
Bus & Motor
STARLINK, Unknown motor
Mass
290 kg wet, ~270 kg dry
Launch date (UTC)
2021-11-13 (5 years ago)
Launch vehicle
FALCON 9
Launch site
Air Force Eastern Test Range (AFETR)
Object type
Payload
Rocket body
Debris
Shape & HBR
Box + 1 Pan, 10.1 m
Radar Cross Section
13.562 m², Large (>1 m²)

Expand to show TLE details & history
Last TLE update: 1 week ago

TLE from 1 week ago
0 STARLINK-3159
1 49415U 21104H   26154.75134182  .00000197  00000-0  30474-4 0  9999
2 49415  53.1801 192.7529 0001098  77.2463 282.8651 15.08832658251753
Epoch: 2026-06-03T18:01Z
TLE epoch observation values (Epoch: 2026-06-03T18:01:55.933Z)
Latitude
-0.00004°
Longitude
30.06435°
Altitude
540.49 km
Speed
7.593 km/s
True Right ascension
12h 51m 00s
True Declination
0° 00' 00"
Sunlit
Object was in full shadow at epoch
Visualization orbit readout
Latitude
Unknown
Longitude
Unknown
Altitude
Unknown
Speed
Unknown
Apparent Right ascension
Unknown
Apparent Declination
Unknown
Sunlit
N/A
Visualization observer readout
Local Sidereal Time
16:13:45
Azimuth
Unknown
Elevation
Unknown
Doppler factor
Unknown
Orbital elements
Apogee altitude
540.776 km
Perigee altitude
539.257 km
Semi-major axis
6,918.154 km
Eccentricity
0.00011
Inclination
53.1801°
RAAN
192.7529°
Arg. of periapsis
77.2463°
True anomaly
282.85283°
Mean anomaly
282.8651°
Eccentric anomaly
282.85897°
Mean motion
3.77188 °/min
Orbital period
95.44 mins
BSTAR
0.000030474
Loading maneuver chart data...
Computing Atmospheric mass density...
Loading historical data...
Loading historical data...
Loading historical data...
Loading historical data...
Loading historical data...
Loading historical data...
Loading historical data...

Documentation

Showing up to 5 results
|